CAPE
12 33 5 0 4 36 49 43 45 52 73 176 264 218 198 17 0 0 0 0 0 0 0 0 0 0 0 0 0 0 0 0 0 0 0 0 0 0 0 0 0 0 0 0 0
10 24 31 26 0 26 47 42 39 65 185 220 207 134 76 0 0 0 0 0 0 0 0 0 0 0 0 0 0 0 0 0 0 0 0 0 0 0 0 0 0 0 0 0 0
18 18 34 33 14 0 35 27 39 60 170 244 246 115 5 0 2 0 0 0 0 0 0 0 0 0 0 0 0 0 0 0 0 0 0 0 0 0 0 0 0 0 0 0 0
69 21 23 30 45 9 0 44 46 49 50 243 282 183 37 48 90 0 0 0 0 0 0 0 0 0 0 0 0 0 0 0 0 0 0 0 0 0 0 0 0 0 0 0 0
12 19 21 37 31 32 1 20 53 62 108 167 128 48 5 46 27 0 0 0 0 0 0 0 0 0 0 0 0 0 0 0 0 0 0 0 0 0 0 0 0 0 0 0 0
14 26 23 27 21 35 21 0 39 75 129 118 132 61 12 53 0 0 0 1 0 0 0 0 0 0 0 0 0 0 0 0 0 0 0 0 0 0 0 0 0 0 0 0 0
26 9 16 36 24 15 31 21 51 56 59 150 150 52 56 0 0 24 0 0 0 0 0 0 0 0 0 0 0 0 0 0 0 0 0 0 0 0 0 0 0 0 0 0 0
27 4 18 31 27 1 15 44 49 64 84 167 259 52 63 1 0 26 0 0 0 0 0 0 0 0 0 0 0 0 0 1 0 0 0 0 0 0 0 0 0 0 0 0 0
168 28 24 42 32 10 67 60 59 70 99 217 200 82 25 3 1 8 9 0 0 0 0 0 0 0 0 0 0 0 0 0 0 0 0 0 0 0 0 0 0 0 0 0 0
163 90 13 91 47 10 31 58 78 61 12 5 0 16 0 0 0 2 12 7 3 0 0 0 0 0 0 2 0 0 0 0 0 0 0 0 0 0 0 0 0 0 0 0 0
174 68 54 93 59 21 76 67 67 31 1 0 0 0 0 0 20 10 24 38 22 2 0 0 1 5 1 4 0 0 0 0 0 0 0 0 0 0 0 0 0 0 0 0 0
95 62 105 154 125 32 28 0 0 0 18 0 0 0 0 8 8 32 38 30 25 0 2 1 0 0 0 0 10 0 0 0 0 0 0 0 0 0 0 0 0 0 0 0 0
56 39 59 153 171 70 0 0 0 0 3 11 0 0 15 25 6 8 58 22 15 6 7 1 0 0 0 0 0 2 0 0 0 0 0 0 0 0 0 0 0 0 0 0 0
81 27 43 114 78 28 15 0 0 0 0 0 1 0 0 24 17 3 62 30 35 10 0 5 0 0 0 1 0 0 0 1 2 0 0 0 0 0 0 0 0 0 0 0 0
80 67 83 38 0 1 0 0 4 1 0 0 0 0 5 15 0 0 50 59 9 28 11 0 0 0 0 0 0 0 0 9 29 8 0 0 0 0 0 0 0 0 0 0 0
72 129 122 44 0 0 7 17 17 2 0 0 1 1 0 17 0 0 24 30 2 20 18 3 0 0 0 0 0 0 1 0 0 2 0 0 0 0 0 0 0 0 0 0 0
165 109 57 0 1 4 38 74 31 7 0 0 2 2 0 0 6 0 0 5 20 17 3 7 5 0 0 1 2 4 3 1 4 7 0 0 0 0 0 0 0 0 0 0 0
149 100 26 0 11 38 87 58 12 0 0 0 0 4 2 0 0 0 0 0 11 0 3 3 5 4 0 1 0 0 0 0 0 0 0 0 0 0 0 0 0 0 0 0 0
86 29 3 7 69 77 43 37 3 0 0 0 0 6 7 7 0 1 0 0 0 12 6 16 3 0 0 1 2 2 0 0 0 0 0 0 0 0 0 0 0 0 0 0 0
23 17 22 32 72 79 35 3 0 0 0 3 0 2 0 9 2 1 0 0 0 0 4 0 2 0 0 11 1 0 0 0 0 0 0 0 0 0 0 0 0 0 0 0 0
13 17 14 37 75 99 21 19 0 0 0 5 0 4 0 1 6 3 0 0 0 0 0 9 1 0 0 0 0 0 4 1 0 0 0 0 0 0 0 0 0 0 0 0 0
0 0 2 46 38 26 10 0 1 1 0 0 1 0 0 0 5 1 0 0 0 0 18 15 16 2 6 0 0 0 0 0 1 0 0 0 0 0 0 0 0 0 0 0 0
0 1 0 26 0 0 0 0 0 0 0 0 0 0 0 0 1 0 0 0 0 0 0 0 2 0 1 1 0 1 0 0 0 0 0 0 0 0 0 0 0 0 0 0 0
0 0 1 0 0 0 0 0 0 0 0 0 0 0 0 0 0 0 0 5 0 1 0 2 0 0 0 0 0 0 1 0 1 0 0 0 0 0 0 0 0 0 0 0 0
0 0 0 0 0 0 0 0 0 0 0 0 0 0 0 0 0 0 0 0 0 0 0 39 4 0 0 0 0 4 1 2 1 0 0 0 0 0 0 0 0 0 0 0 0
0 0 0 0 0 0 0 0 0 0 0 0 0 0 0 0 0 0 0 0 0 0 0 8 15 2 0 0 0 0 5 0 0 0 0 0 0 0 0 0 0 0 0 0 0
0 0 0 0 0 0 0 0 0 0 0 0 0 0 0 0 0 0 0 0 0 0 4 2 4 3 0 1 2 19 4 2 0 0 0 0 0 0 0 0 0 0 0 0 0
CIN
-22 -3 -1 0 -20 -27 -19 -11 -17 -20 -35 -33 -23 -31 -20 -57 0 0 0 0 0 0 0 0 0 0 0 0 0 0 0 0 0 0 0 0 0 0 0 0 0 0 0 0 0
-27 -12 -1 -1 0 -18 -31 -20 -17 -17 -6 -12 -16 -45 -65 0 0 0 0 0 0 0 0 0 0 0 0 0 0 0 0 0 0 0 0 0 0 0 0 0 0 0 0 0 0
-27 -19 -8 -2 -3 0 -21 -37 -27 -18 -8 -7 -12 -29 -143 0 -67 0 0 0 0 0 0 0 0 0 0 0 0 0 0 0 0 0 0 0 0 0 0 0 0 0 0 0 0
-32 -19 -11 -9 -2 -6 0 -23 -31 -22 -19 -5 -1 -13 -86 -51 -2 0 0 0 0 0 0 0 0 0 0 0 0 0 0 0 0 0 0 0 0 0 0 0 0 0 0 0 0
-13 -30 -17 -9 -10 -11 -2 -22 -29 -18 -10 -5 -8 -41 -51 -33 -40 0 0 0 0 0 0 0 0 0 0 0 0 0 0 0 0 0 0 0 0 0 0 0 0 0 0 0 0
-24 -33 -26 -13 -12 -12 -20 0 -24 -21 -7 -7 -8 -20 -15 0 0 0 0 -104 0 0 0 0 0 0 0 0 0 0 0 0 0 0 0 0 0 0 0 0 0 0 0 0 0
-10 -23 -36 -15 -12 -15 -25 -24 -19 -21 -13 -3 -2 -10 -1 -1 0 -88 0 0 0 0 0 0 0 0 0 0 0 0 0 0 0 0 0 0 0 0 0 0 0 0 0 0 0
-7 -21 -44 -20 -16 -10 -26 -22 -17 -18 -16 -7 -1 -8 -1 -11 0 -46 -13 0 0 0 0 0 0 0 0 0 0 0 0 -13 0 0 0 0 0 0 0 0 0 0 0 0 0
-5 -15 -35 -32 -21 -25 -15 -25 -20 -10 -5 -7 -2 -7 -2 -34 -37 -54 -48 0 0 0 0 0 0 0 0 0 0 0 0 0 0 0 0 0 0 0 0 0 0 0 0 0 0
-5 -6 -36 -32 -24 -34 -22 -30 -14 -6 -33 -13 -6 -14 0 0 -9 -26 -47 -42 -38 0 0 0 0 0 -6 -1 0 0 0 0 0 0 0 0 0 0 0 0 0 0 0 0 0
-4 -10 -18 -22 -25 -24 -13 -9 0 -2 -6 0 0 0 0 -33 -21 -23 -41 -17 -13 -25 0 0 0 0 -1 -4 0 0 0 0 0 0 0 0 0 0 0 0 0 0 0 0 0
-8 -11 -10 -8 -13 -22 -29 0 0 0 0 0 0 0 0 -18 -6 -17 -27 0 -2 -1 -10 0 0 0 0 0 -2 0 0 0 0 0 0 0 0 0 0 0 0 0 0 0 0
-12 -14 -10 -7 -17 -12 0 0 0 0 -1 -2 0 -5 -11 -8 -1 -9 -7 -4 -3 -5 -4 -3 0 0 0 0 -1 -3 0 0 0 0 0 0 0 0 0 0 0 0 0 0 0
-8 -15 -19 -9 -6 -10 -1 0 0 0 0 -1 -2 0 0 -14 -1 -4 -9 -22 -1 -1 0 -6 -8 0 0 0 -1 0 0 -5 -23 0 0 0 0 0 0 0 0 0 0 0 0
-5 -12 -11 -17 0 0 0 0 -20 -17 0 0 0 0 -19 -4 0 0 -27 -11 -6 -3 -4 0 0 0 0 0 0 0 0 -27 -22 -54 0 0 0 0 0 0 0 0 0 0 0
-9 -6 -11 -6 -3 0 -63 -38 -16 -8 0 0 -4 -1 0 -8 0 0 -10 -18 -3 -7 -7 -22 0 0 0 0 0 0 0 0 0 -2 0 0 0 0 0 0 0 0 0 0 0
-1 -9 -12 -20 -1 -28 -45 -9 -1 -10 0 0 0 -1 0 0 -2 0 0 0 0 -1 0 0 -1 -2 0 -2 -6 -1 0 0 0 -2 0 0 0 0 0 0 0 0 0 0 0
-3 -14 -16 0 -32 -50 -7 0 -7 0 0 0 0 -1 0 0 0 0 0 0 -1 0 -1 -1 0 -14 0 -3 0 -1 0 0 0 0 0 0 0 0 0 0 0 0 0 0 0
-6 -3 -8 -28 -25 -35 -1 -2 -12 0 0 0 0 0 0 -1 0 -1 0 0 0 -1 -1 0 -1 -3 0 -1 -7 0 0 0 0 0 0 0 0 0 0 0 0 0 0 0 0
-1 0 0 -22 -31 -18 -1 -8 0 0 0 -6 0 -1 0 0 -1 0 0 0 0 0 0 -6 0 0 0 -10 -8 -4 0 0 0 0 0 0 0 0 0 0 0 0 0 0 0
0 0 -5 -20 -10 0 0 -4 0 0 -50 -8 -9 -5 0 -1 -3 -1 0 0 0 0 0 -1 0 0 -2 0 0 0 -2 0 0 0 0 0 0 0 0 0 0 0 0 0 0
0 0 -6 -6 0 -1 -11 0 0 0 0 0 0 0 0 0 -1 -2 0 0 0 0 0 -2 -6 -12 -14 0 0 0 0 0 -1 0 0 0 0 0 0 0 0 0 0 0 0
0 0 -1 -2 0 0 0 0 0 0 0 0 0 0 0 0 -1 0 0 0 0 0 0 -1 -16 -4 0 0 0 -5 0 0 0 0 0 0 0 0 0 0 0 0 0 0 0
0 0 0 0 0 0 0 0 0 0 0 0 0 0 0 0 0 0 0 -13 0 -2 0 -2 0 0 0 0 0 -1 -1 0 0 0 0 0 0 0 0 0 0 0 0 0 0
0 0 0 0 0 0 0 0 0 0 0 0 0 0 0 0 0 0 0 0 0 0 0 -2 0 0 0 0 0 -6 0 -2 -1 0 0 0 0 0 0 0 0 0 0 0 0
0 0 0 0 0 0 0 0 0 0 0 0 0 0 0 0 0 0 0 0 0 0 0 -29 -42 -3 0 0 0 0 0 0 -1 0 -1 0 0 0 0 0 0 0 0 0 0
0 0 0 0 0 0 0 0 0 0 0 0 0 0 0 0 0 0 0 0 0 0 -9 0 -6 -3 0 0 -7 -6 -9 -8 0 0 0 0 0 0 0 0 0 0 0 0 0
Wind_Speed
41 39 39 39 39 36 34 33 31 35 33 30 29 28 23 23 22 24 31 23 23 21 21 21 22 21 19 20 19 16 21 21 22 20 19 14 15 14 14 10 12 13 11 14 12
42 39 39 38 39 37 34 34 31 31 32 30 27 25 22 19 25 33 25 22 21 20 21 24 25 22 22 21 20 20 22 22 23 21 17 14 15 12 14 12 14 13 15 9 11
42 41 39 38 37 38 36 34 33 30 29 30 25 25 22 19 28 34 26 22 19 18 20 21 23 23 25 22 22 21 24 21 18 16 15 14 17 18 15 16 16 12 9 6 9
42 42 39 37 36 37 36 34 33 33 29 25 24 24 24 26 39 27 26 22 19 17 20 22 23 26 27 27 23 26 25 23 20 17 16 18 16 19 17 20 20 13 4 6 9
40 42 40 38 35 34 37 35 33 32 29 23 20 20 24 36 35 22 23 22 22 20 24 24 28 27 30 27 25 27 25 26 25 25 22 19 21 22 23 21 17 11 4 4 6
41 39 40 38 35 34 34 36 33 31 30 24 20 19 26 44 24 25 22 20 22 24 24 23 27 25 29 28 29 24 28 31 27 27 25 25 24 22 23 20 18 12 8 2 4
38 37 39 38 36 33 33 33 33 30 30 26 22 23 32 33 19 17 20 26 18 24 23 19 21 25 26 28 29 29 27 27 32 28 27 24 30 26 22 19 19 15 13 10 3
38 35 38 38 34 33 31 31 30 29 27 24 22 25 30 22 21 16 14 20 21 21 26 22 25 23 25 25 25 30 31 39 29 27 27 25 36 28 21 18 21 20 15 15 9
39 36 35 38 34 31 29 28 27 25 24 24 26 28 32 22 24 22 18 20 19 16 18 20 22 25 27 30 32 31 39 37 34 27 26 27 34 29 26 18 27 30 25 21 20
39 36 34 36 34 30 27 26 23 20 19 18 25 30 27 34 26 22 19 18 24 20 20 23 23 27 30 35 45 38 38 35 38 32 32 36 40 29 24 23 18 30 28 18 12
39 36 34 35 34 30 26 23 27 29 32 36 37 35 28 23 20 26 23 22 25 28 34 27 36 38 34 36 32 32 36 37 34 31 35 41 44 44 43 40 39 34 28 15 11
39 36 33 33 33 30 27 35 32 30 37 28 28 31 26 24 29 29 22 29 36 44 32 32 48 40 32 32 37 34 35 38 34 34 36 42 49 45 45 47 44 42 35 16 12
38 37 34 32 32 32 34 33 24 18 30 36 30 34 30 29 33 33 27 27 34 39 40 41 35 32 32 32 40 43 43 37 36 32 35 41 55 52 46 48 48 43 40 18 21
37 37 36 33 32 34 38 28 24 20 32 37 40 35 32 29 39 30 32 28 32 43 42 43 33 29 34 38 35 46 35 33 36 36 45 33 54 45 40 47 47 47 38 24 18
37 34 35 36 32 40 34 28 23 23 48 32 38 26 32 38 29 35 33 33 32 29 33 48 45 39 35 37 31 38 28 34 36 38 42 44 47 45 37 45 45 39 38 32 32
38 35 34 34 31 31 27 25 24 36 51 32 30 38 37 43 35 29 30 32 33 36 35 37 26 36 42 31 26 24 24 28 33 37 55 50 49 53 47 44 41 38 39 35 27
38 35 34 31 35 30 29 28 39 47 30 36 36 36 40 42 42 36 40 41 38 41 45 37 39 37 36 38 32 30 28 37 43 46 56 40 47 64 38 34 37 38 38 36 32
37 34 31 29 27 30 32 37 46 41 40 31 33 32 41 37 43 41 39 45 45 41 38 44 47 35 36 42 39 38 34 39 47 50 52 37 53 56 43 43 42 38 35 34 31
35 31 30 28 28 30 37 46 42 36 36 34 28 38 39 43 39 39 45 48 44 39 42 42 46 29 32 32 33 39 45 35 37 37 46 47 52 50 44 41 40 38 37 35 29
35 32 31 27 29 31 38 40 36 28 29 30 38 36 43 42 40 44 43 46 46 45 34 31 47 36 31 32 36 40 37 42 40 50 55 51 53 56 41 42 39 39 36 32 28
30 30 29 27 27 32 44 40 32 27 24 31 33 36 41 39 41 44 45 37 40 40 38 38 34 35 31 41 40 41 43 42 41 44 53 60 57 45 47 41 40 35 33 32 28
28 28 30 30 31 36 36 35 23 28 25 23 27 30 32 34 40 40 50 45 30 37 41 37 36 46 48 39 42 41 44 42 47 53 49 51 66 38 35 33 33 34 31 27 24
28 21 27 31 35 33 26 29 31 28 32 29 28 24 25 31 38 42 40 42 35 28 39 41 38 47 41 40 39 46 45 41 43 43 53 56 64 36 33 33 33 29 27 23 21
23 24 27 30 25 26 30 31 32 26 28 30 29 23 27 30 31 33 43 32 35 35 34 33 46 48 58 47 33 47 45 43 41 52 54 53 59 42 33 35 30 25 24 21 19
22 23 25 34 28 23 26 27 28 32 26 25 31 34 32 37 34 37 33 35 36 34 38 40 54 55 59 55 40 47 47 44 45 46 50 58 52 51 41 33 26 22 22 22 19
24 23 23 21 21 21 24 27 30 31 30 33 37 39 39 41 39 39 33 32 35 32 38 39 43 46 61 59 60 58 48 46 47 48 50 64 60 48 41 41 35 27 22 23 24
19 19 20 21 24 28 30 28 29 27 31 32 37 32 39 46 42 39 34 31 30 33 35 36 45 46 59 51 53 64 61 53 50 49 45 52 53 35 38 38 35 30 27 28 27
Wind_Direction
245 243 242 241 241 243 243 244 244 242 243 244 242 241 239 241 248 254 251 262 263 279 277 274 276 279 283 278 282 288 275 267 266 270 278 280 286 291 304 327 322 319 347 337 101
241 242 240 239 238 240 242 242 242 242 242 242 240 237 234 236 248 250 257 261 270 271 271 265 263 270 269 271 273 268 269 267 269 270 280 280 281 288 297 308 310 322 322 20 99
239 239 238 238 237 237 239 240 240 240 240 240 236 233 234 240 249 251 251 257 267 266 272 273 267 264 262 267 265 266 265 267 277 279 279 282 281 281 289 293 298 316 346 69 106
238 235 236 235 235 235 235 238 238 238 238 239 234 233 235 243 247 258 247 248 259 265 268 267 264 256 258 258 263 261 263 262 272 279 281 277 286 281 285 287 293 307 33 98 122
237 233 234 233 233 233 233 235 235 236 235 233 230 227 238 243 249 261 247 242 250 260 261 261 257 256 253 259 260 259 261 262 267 266 272 282 278 281 279 287 300 308 336 116 127
234 232 231 231 230 231 231 232 234 234 233 230 225 223 242 241 258 259 244 238 246 251 255 259 262 262 258 257 254 264 261 259 265 268 270 270 275 281 282 285 289 292 296 277 156
233 230 227 228 229 229 229 230 231 234 233 228 228 237 242 244 255 262 240 239 243 245 248 259 265 258 259 257 258 258 261 264 259 264 267 270 266 272 283 288 282 287 290 290 256
230 227 225 225 226 227 227 227 229 232 232 226 227 239 245 251 248 242 248 244 242 253 251 260 263 267 259 262 262 256 258 253 261 261 266 265 260 270 284 287 279 281 289 285 277
228 226 223 221 221 222 223 223 225 229 232 226 232 239 242 247 241 239 246 239 240 249 262 257 263 262 256 250 252 254 250 251 257 261 264 261 264 273 278 287 276 274 282 282 283
224 221 218 216 217 218 217 217 218 222 227 227 241 236 249 240 235 239 248 236 244 241 256 252 256 253 249 244 243 248 251 255 254 259 260 260 260 270 277 280 292 276 282 282 272
220 216 216 212 211 210 208 205 215 228 227 231 234 239 244 242 233 238 239 240 246 244 244 251 246 247 248 247 254 255 254 254 259 263 262 260 259 256 258 260 262 276 284 281 261
215 212 210 208 204 204 204 216 215 235 222 236 238 237 245 241 237 233 231 239 240 239 242 248 244 247 254 258 252 255 254 255 263 265 265 263 258 260 261 253 254 256 268 284 215
209 208 206 202 198 204 211 218 216 213 230 234 239 236 238 238 238 231 226 238 240 239 238 244 258 246 249 255 250 249 252 259 262 268 268 267 259 259 264 260 258 262 261 274 209
202 204 202 196 200 208 214 213 210 234 234 235 233 240 236 238 240 237 233 238 249 242 240 246 251 246 244 251 250 250 257 261 262 264 260 266 258 261 265 259 259 260 268 261 264
196 193 194 191 205 208 206 209 212 233 232 236 230 242 231 232 237 237 232 239 242 241 243 244 244 242 244 247 250 255 263 257 262 263 265 259 260 260 266 262 261 268 268 273 273
187 186 187 201 209 206 196 200 215 226 232 233 229 226 226 231 237 236 235 242 249 250 251 251 259 242 244 248 247 258 263 262 263 264 256 256 256 257 259 263 268 272 269 272 278
188 185 183 202 207 194 189 196 219 228 233 230 229 224 223 229 230 233 231 231 234 235 241 248 249 249 246 245 246 249 251 254 254 253 255 260 256 249 261 271 270 271 272 274 279
185 181 193 209 193 186 195 207 225 232 230 239 232 228 230 226 232 232 234 233 236 239 245 243 245 240 241 242 242 238 243 251 255 256 259 266 258 258 263 264 269 274 277 277 278
177 191 195 200 187 192 197 217 229 231 231 231 229 230 233 231 234 231 234 235 237 234 241 243 248 249 247 247 239 246 244 253 264 267 262 261 263 267 265 267 269 271 272 273 278
185 192 200 194 192 199 207 223 229 235 234 227 233 232 230 227 232 228 231 240 238 236 239 258 251 253 247 249 251 247 244 250 256 257 258 261 262 259 267 265 267 269 269 271 271
184 196 201 194 194 202 218 223 230 232 232 230 237 235 235 231 234 231 238 245 235 239 235 250 258 259 244 243 240 243 243 248 254 256 259 261 263 269 267 270 268 270 270 270 265
193 207 190 187 203 218 220 221 234 223 234 239 241 241 237 233 235 236 238 238 247 240 237 242 260 256 252 257 252 248 249 244 252 253 259 263 260 277 276 278 275 269 270 270 266
190 202 201 201 215 216 217 223 230 227 232 235 244 250 245 241 241 240 245 247 249 245 241 238 250 253 256 257 255 246 245 241 246 259 255 257 261 270 276 280 275 272 268 264 264
193 201 205 212 226 220 218 226 229 234 235 238 244 249 244 244 250 246 249 258 249 251 247 242 248 251 248 257 260 247 246 245 242 251 256 256 261 268 273 277 279 271 267 258 256
211 216 215 208 217 218 222 224 223 232 239 239 243 242 245 246 248 249 256 254 257 257 256 252 251 251 254 255 263 258 249 245 244 246 253 258 260 261 269 278 282 275 268 257 249
211 212 216 212 208 215 227 228 226 234 234 242 248 245 247 250 250 253 257 259 257 259 257 253 258 254 255 255 254 258 257 247 247 250 254 257 260 265 268 268 274 270 255 250 253
224 220 214 221 221 226 234 234 237 240 248 250 249 254 252 252 257 260 263 264 263 258 257 262 254 259 256 256 256 254 250 249 246 245 242 252 251 268 265 264 263 259 255 253 256